Overview Statistics Trail Chart Weather Telemetry Raw packets
 

This is the latest recevied weather packets stored in our database for station/object 4S6DRJ-13. If no packets are shown the sender has not sent any weather packets the latest 10 day(s).

<< 16 17 18 19 20 21 22 >>
Time Temp. Humidity Pressure Rain* Wind** Luminosity Snow
1788419610 31.11° C 70% 1008.9 hPa 0 mm 0.89 m/s, 136° 684 W/m² -
1788419549 31.11° C 71% 1008.9 hPa 0 mm 1.79 m/s, 85° 1132 W/m² -
1788419488 31.11° C 71% 1009.1 hPa 0 mm 1.79 m/s, 266° 324 W/m² -
1788419427 31.67° C 70% 1008.9 hPa 0 mm 1.79 m/s, 269° 364 W/m² -
1788419366 31.67° C 69% 1009 hPa 0 mm 1.34 m/s, 359° 635 W/m² -
1788419305 31.67° C 69% 1009.1 hPa 0 mm 1.34 m/s, 273° 398 W/m² -
1788419244 31.67° C 68% 1009 hPa 0 mm 1.79 m/s, 283° 380 W/m² -
1788419183 31.67° C 68% 1009 hPa 0 mm 1.34 m/s, 332° 413 W/m² -
1788419122 31.67° C 67% 1009.1 hPa 0 mm 2.68 m/s, 351° 1139 W/m² -
1788419061 31.67° C 69% 1009 hPa 0 mm 2.24 m/s, 170° 1136 W/m² -
1788419000 31.11° C 70% 1009 hPa 0 mm 2.24 m/s, 42° 1135 W/m² -
1788418939 31.11° C 70% 1008.9 hPa 0 mm 2.24 m/s, 292° 1141 W/m² -
1788418878 31.67° C 70% 1009.1 hPa 0 mm 1.34 m/s, 271° 1145 W/m² -
1788418817 31.67° C 70% 1009.1 hPa 0 mm 2.68 m/s, 200° 1141 W/m² -
1788418695 31.11° C 71% 1009 hPa 0 mm 0.45 m/s, 226° 1117 W/m² -
1788418634 31.11° C 72% 1009.1 hPa 0 mm 0.89 m/s, 271° 588 W/m² -
1788418573 31.11° C 72% 1008.9 hPa 0 mm 1.79 m/s, 298° 1140 W/m² -
1788418512 31.11° C 71% 1009 hPa 0 mm 2.24 m/s, 353° 519 W/m² -
1788418451 31.11° C 71% 1008.8 hPa 0 mm 0.89 m/s, 49° 464 W/m² -
1788418390 31.11° C 70% 1009.1 hPa 0 mm 2.68 m/s, 308° 410 W/m² -
1788418330 31.11° C 72% 1009.1 hPa 0 mm 2.68 m/s, 236° 385 W/m² -
1788418268 31.11° C 71% 1009.2 hPa 0 mm 2.24 m/s, 308° 730 W/m² -
1788418207 31.11° C 71% 1009.2 hPa 0 mm 1.79 m/s, 116° 664 W/m² -
1788418159 31.11° C 71% 1009.1 hPa 0 mm 2.24 m/s, 203° 1137 W/m² -
1788418085 31.11° C 70% 1009.2 hPa 0 mm 3.58 m/s, 251° 853 W/m² -

* Rain latest hour (hover to see other rain measurements)
** Current wind speed in m/s (hover to see current wind gust speed)